Home > Weather > Bruges > Past weeks

Flag for Belgium Weather for the Past 2 Weeks in Bruges, Belgium

Now
43 °F

Passing clouds.


Feels Like: 33 °F
Forecast: 38 / 45 °F
Wind: 24 mph from West

Location: Oostende Airport

Current Time: Feb 10, 2016 at 4:28:10 AM

Latest Report: Feb 10, 2016 at 3:20 AM


Visibility: N/A

Pressure: 29.24 "Hg

Humidity: 76%

Dew point: 36 °F

Location of BrugesLocation

Historic Weather in Bruges — Graph

°F

Bruges Temperature Yesterday

Maximum temperature yesterday: 46 °F (at 12:20 AM)
Minimum temperature yesterday: 37 °F (at 9:50 PM)
Average temperature yesterday: 42 °F

High & Low Weather Summary for the Past Weeks

 TemperatureHumidityPressure
High54 °F (Jan 31, 7:50 PM)100% (Jan 26, 2:20 AM)30.33 "Hg (Jan 26, 2:20 AM)
Low37 °F (Feb 9, 9:50 PM)57% (Jan 30, 4:20 PM)29.00 "Hg (Feb 9, 12:20 PM)
Average47 °F83%29.87 "Hg
* Reported Jan 26 2:20 AM — Feb 10 2:20 AM, Bruges, Weather by CustomWeather, © 2016

Note: Actual official high and low records may vary slightly from our data, if they occured in-between our weather recording intervals... More about our weather records

Advertising

Bruges Weather History for the Previous 24 Hours

 ConditionsComfort  
Time TempWeatherWind HumidityBarometerVisibility
2:20 AM
Wed, Feb 10
43 °FPassing clouds.22 mph76%29.21 "HgN/A
1:50 AM43 °FPassing clouds.23 mph76%29.24 "HgN/A
1:20 AM43 °FPassing clouds.24 mph76%29.21 "HgN/A
12:50 AM43 °FPassing clouds.25 mph71%29.21 "HgN/A
12:20 AM41 °FPartly cloudy.17 mph81%29.21 "HgN/A
11:50 PM
Tue, Feb 9
43 °FPartly cloudy.24 mph71%29.21 "HgN/A
11:20 PM41 °FPassing clouds.26 mph76%29.21 "HgN/A
10:20 PM43 °FPartly cloudy.20 mph71%29.21 "HgN/A
9:50 PM37 °FPartly cloudy.14 mph87%29.18 "HgN/A
9:20 PM39 °FPassing clouds.13 mph81%29.18 "HgN/A
8:50 PM39 °FPassing clouds.12 mph81%29.18 "HgN/A
8:20 PM41 °FPassing clouds.13 mph81%29.18 "HgN/A
7:50 PM43 °FPassing clouds.22 mph66%29.15 "HgN/A
7:20 PM43 °FPassing clouds.20 mph66%29.15 "HgN/A
6:50 PM41 °FPassing clouds.21 mph66%29.15 "HgN/A
6:20 PM43 °FPassing clouds.20 mph71%29.12 "HgN/A
5:50 PM43 °FScattered clouds.20 mph76%29.12 "HgN/A
4:50 PM43 °FScattered clouds.17 mph81%29.06 "HgN/A
4:20 PM41 °FBroken clouds.16 mph87%29.06 "HgN/A
3:50 PM41 °FBroken clouds.14 mph87%29.06 "HgN/A
3:20 PM41 °FBroken clouds.14 mph87%29.03 "HgN/A
2:50 PM39 °FPassing clouds.8 mph87%29.00 "HgN/A
2:20 PM39 °FBroken clouds.13 mph87%29.00 "HgN/A
1:50 PM39 °FLight rain. Broken clouds.15 mph87%29.00 "HgN/A
1:20 PM39 °FLight rain. Partly sunny.13 mph87%29.00 "Hg5 mi
12:50 PM39 °FLight rain. Partly sunny.12 mph93%29.00 "Hg4 mi
12:20 PM41 °FLight rain. Partly sunny.7 mph87%29.00 "Hg4 mi
10:50 AM41 °FLight rain. Broken clouds.6 mph93%29.09 "Hg6 mi
10:20 AM41 °FLight rain. Broken clouds.8 mph93%29.12 "Hg6 mi
9:50 AM41 °FLight rain. Partly sunny.8 mph93%29.15 "Hg6 mi
8:50 AM41 °FLight rain. Partly sunny.9 mph93%29.24 "Hg5 mi
8:20 AM41 °FLight rain. Partly sunny.10 mph93%29.27 "Hg6 mi
7:50 AM41 °FPassing clouds.12 mph87%29.27 "HgN/A
7:20 AM41 °FPassing clouds.12 mph87%29.30 "HgN/A
6:50 AM41 °FPassing clouds.14 mph93%29.33 "HgN/A
6:20 AM41 °FPassing clouds.13 mph93%29.36 "HgN/A
5:50 AM41 °FPassing clouds.9 mph93%29.36 "HgN/A
5:20 AM41 °FPassing clouds.10 mph93%29.39 "HgN/A
4:50 AM41 °FPassing clouds.15 mph87%29.39 "HgN/A
4:20 AM43 °FPassing clouds.22 mph81%29.42 "HgN/A
Weather by CustomWeather, © 2016

See weather overviewHow to use our weather pages